This demonstration page uses our WeatherBlox Daily Observations layout. Learn more.

Left ArrowRight Arrow

Hourly Observations for January 17, 2020

Temp ( °F °C ) Dew Point ( °F °C ) Humidity (%) Winds ( mph kmh ) Pressure ( in mb ) Visibility ( mi km ) Precip ( " mm )
12:53 am 00:53 Cloudy -2 -18.9 -8 -22.2 75 75 WNW 15 24 30.01 1016 10 16 0.00 0.00
1:53 am 01:53 Cloudy -4 -20 -11 -23.9 71 71 NW 13 20 29.99 1016 10 16 0.00 0.00
2:53 am 02:53 Cloudy -5 -20.6 -12 -24.4 72 72 NW 16 26 30.03 1017 10 16 0.00 0.00
3:53 am 03:53 Cloudy -7 -21.7 -14 -25.6 71 71 NW 20 31 30.05 1018 10 16 0.00 0.00
4:53 am 04:53 Cloudy -8 -22.2 -14 -25.6 74 74 WNW 13 20 30.08 1019 10 16 0.00 0.00
5:53 am 05:53 Cloudy -9 -22.8 -16 -26.7 71 71 NW 12 19 30.12 1020 10 16 0.00 0.00
6:53 am 06:53 Cloudy with Haze -9 -22.8 -15 -26.1 75 75 WNW 14 22 30.16 1021 4 6 0.00 0.00
7:02 am 07:02 Cloudy with Haze -9 -22.8 -15 -26.1 75 75 W 13 20 30.32 1027 4 6 0.00 0.00
7:40 am 07:40 Cloudy -8 -22.2 -15 -26.1 71 71 WNW 15 24 30.34 1027 9 14 0.00 0.00
7:53 am 07:53 Cloudy with Light Snow -8 -22.2 -15 -26.1 71 71 WNW 13 20 30.19 1023 4 6 0.00 0.00
8:31 am 08:31 Cloudy with Light Snow -8 -22.2 -15 -26.1 71 71 WNW 15 24 30.37 1028 2 3 0.00 0.00
8:36 am 08:36 Mostly Cloudy with Light Snow -8 -22.2 -15 -26.1 71 71 W 10 17 30.38 1029 1 1 0.00 0.00
8:53 am 08:53 Cloudy with Light Snow -9 -22.8 -15 -26.1 75 75 WNW 13 20 30.25 1024 2 2 0.01 0.25
9:02 am 09:02 Cloudy with Light Snow -9 -22.8 -15 -26.1 75 75 WNW 15 24 30.41 1030 3 5 0.00 0.00
9:53 am 09:53 Cloudy -8 -22.2 -16 -26.7 67 67 WNW 16 26 30.27 1025 10 16 0.00 0.00
10:25 am 10:25 Cloudy with Light Snow -8 -22.2 -15 -26.1 71 71 WNW 15 24 30.43 1030 3 5 0.00 0.00
10:53 am 10:53 Cloudy with Light Snow -8 -22.2 -15 -26.1 71 71 WNW 18 30 30.29 1026 4 6 0.00 0.00
11:30 am 11:30 Partly Cloudy -8 -22 -15 -26 70 70 WNW 18 30 30.46 1031 10 16 0.00 0.00
11:53 am 11:53 Mostly Sunny -7 -21.7 -16 -26.7 64 64 NW 18 30 30.31 1027 10 16 0.00 0.00
12:42 pm 12:42 Cloudy -6 -21.1 -16 -26.7 61 61 WNW 17 28 30.48 1032 10 16 0.00 0.00
12:53 pm 12:53 Mostly Cloudy -6 -21.1 -16 -26.7 61 61 WNW 17 28 30.33 1027 10 16 0.00 0.00
1:53 pm 13:53 Mostly Cloudy -6 -21.1 -15 -26.1 64 64 WNW 18 30 30.35 1028 10 16 0.00 0.00
2:53 pm 14:53 Sunny -7 -21.7 -16 -26.7 64 64 WNW 16 26 30.39 1029 10 16 0.00 0.00
3:16 pm 15:16 Mostly Cloudy -7 -21.7 -16 -26.7 64 64 WNW 15 24 30.55 1035 10 16 0.00 0.00
3:53 pm 15:53 Mostly Cloudy -6 -21.1 -16 -26.7 61 61 WNW 15 24 30.44 1031 10 16 0.00 0.00
4:17 pm 16:17 Partly Cloudy -7 -21.7 -16 -26.7 64 64 WNW 17 28 30.59 1036 10 16 0.00 0.00
4:53 pm 16:53 Sunny -9 -22.8 -18 -27.8 64 64 W 9 15 30.48 1032 10 16 0.00 0.00
5:53 pm 17:53 Clear -11 -23.9 -18 -27.8 70 70 W 8 13 30.51 1033 10 16 0.00 0.00
6:53 pm 18:53 Cloudy -9 -22.8 -17 -27.2 67 67 W 12 19 30.52 1034 10 16 0.00 0.00
7:53 pm 19:53 Cloudy -7 -21.7 -16 -26.7 64 64 WNW 12 19 30.52 1033 10 16 0.00 0.00
8:53 pm 20:53 Mostly Cloudy -8 -22.2 -16 -26.7 67 67 WSW 10 17 30.52 1034 10 16 0.00 0.00
9:53 pm 21:53 Clear -11 -23.9 -18 -27.8 70 70 WSW 12 19 30.54 1034 10 16 0.00 0.00
10:53 pm 22:53 Clear -15 -26.1 -20 -28.9 77 77 SW 10 17 30.57 1035 10 16 0.00 0.00
11:53 pm 23:53 Clear -13 -25 -20 -28.9 70 70 SW 9 15 30.58 1036 10 16 0.00 0.00

Powered by AerisWeather